Location: San Lorenzo
(11.3045°N, 85.9109°W)
Time: 19:46:38
(UTC+00:00)

Daily predictions for brighter satellites

Satellite Brightness Start Highest point End
(mag) Time Altitude Azimuth Time Altitude Azimuth Time Altitude Azimuth
BREEZE-M DEB (TANK) 4.2 23:18:13 10° SW 23:21:38 76° NW 23:34:43 10° NE
COSMOS 2455 3.5 23:26:33 10° NNW 23:32:27 62° WSW 23:38:21 10° S
Cosmos 1805 Rocket 3.8 23:32:40 10° N 23:36:56 48° E 23:41:10 10° SSE
MAQSAT/ARIANE V 3.8 23:24:26 10° WSW 23:37:44 44° S 23:40:51 10° ESE
Intelsat 5-3 Rocket 3.8 23:37:27 10° SW 23:40:47 21° SSE 23:42:55 10° ESE
H-2A R/B 3.2 23:38:50 10° WNW 23:42:04 73° SSW 23:58:56 10° ESE
Meteor 1-26 Rocket 4.4 23:39:50 10° S 23:45:35 59° E 23:51:27 10° NNE
SL-16 R/B 3.1 23:40:29 10° SSW 23:45:58 53° WNW 23:51:28 10° N
Lacrosse 5 rocket 3.9 23:47:49 10° W 23:49:24 12° WNW 23:50:57 10° NNW
Sakura Rocket 3.4 23:46:18 10° WSW 23:50:11 56° NNW 23:55:00 11° NE
CZ-4 R/B 2.9 23:51:14 10° ESE 23:53:17 14° ENE 23:55:20 10° NE
CZ-2C R/B 4.2 23:51:02 10° SE 23:55:03 21° ENE 23:58:55 10° NNE
